Location: Bonnesvalyn
(49.1218°N, 3.3177°E)
Time: 19:08:44
(UTC+00:00)

Cosmos 1850 Rocket - Pass Details

Date: 09 February 2023
Orbit: 753 x 785 km, 74.0° (Epoch: 26 March)

Event Time Altitude Azimuth Distance (km) Brightness Sun altitude
Rises 18:06:13 0° 204° (SSW) 3,198 7.7 -11.8°
Reaches altitude 10° 18:08:35 10° 206° (SSW) 2,275 6.9 -12.2°
Maximum altitude 18:13:44 81° 293° (WNW) 770 4.1 -13.0°
Drops below altitude 10° 18:18:56 10° 22° (NNE) 2,289 6.2 -13.9°
Sets 18:21:19 0° 23° (NNE) 3,220 6.9 -14.3°
